Home   Weather   Georgetown   Past weeks

Flag for Guyana Past Weather in Georgetown, Guyana — Yesterday and Last 2 Weeks

Now
81 °F

Thunderstorms. Partly cloudy.


Feels Like: 87 °F
Forecast: 77 / 87 °F
Wind: 5 mph from East

Location: Georgetown/Cheddi Jagan International Airport

Current Time: Dec 3, 2016 at 8:09:37 pm

Latest Report: Dec 3, 2016 at 7:00 pm


Visibility: N/A

Pressure: 29.86 "Hg

Humidity: 89%

Dew Point: 77 °F

Location of GeorgetownLocation

Past Weather in Georgetown — Graph

°F

Georgetown Temperature Yesterday

Maximum temperature yesterday: 90 °F (at 2:00 pm)
Minimum temperature yesterday: 75 °F (at 4:00 am)
Average temperature yesterday: 81 °F

High & Low Weather Summary for the Past Weeks

 TemperatureHumidityPressure
High93 °F (Nov 29, 2:00 pm)100% (Nov 18, 11:00 pm)29.95 "Hg (Nov 18, 11:00 pm)
Low72 °F (Nov 25, 6:00 am)49% (Nov 30, 2:00 pm)29.68 "Hg (Nov 21, 3:00 pm)
Average81 °F83%29.82 "Hg
* Reported Nov 18 7:00 pm — Dec 3 7:00 pm, Georgetown, Weather by CustomWeather, © 2016

Note: Actual official high and low records may vary slightly from our data, if they occured in-between our weather recording intervals... More about our weather records

Advertising

Georgetown Weather History for the Previous 24 Hours

Scroll right to see more
 ConditionsComfort  
Time TempWeatherWind HumidityBarometerVisibility
7:00 pm
Sat, Dec 3
81 °FThunderstorms. Partly cloudy.5 mph89%29.86 "HgN/A
6:00 pm82 °FThunderstorms. Partly cloudy.9 mph79%29.83 "HgN/A
5:00 pm84 °FScattered clouds.9 mph70%29.83 "HgN/A
4:00 pm88 °FScattered clouds.12 mph62%29.80 "HgN/A
3:00 pm90 °FPartly sunny.12 mph63%29.80 "HgN/A
2:00 pm90 °FPartly sunny.9 mph59%29.80 "HgN/A
1:00 pm91 °FPartly sunny.7 mph59%29.83 "HgN/A
12:00 pm91 °FPartly sunny.5 mph59%29.86 "HgN/A
11:00 am91 °FPartly sunny.No wind59%29.89 "HgN/A
10:00 am88 °FPartly sunny.5 mph62%29.92 "HgN/A
9:00 am84 °FPartly sunny.5 mph74%29.92 "HgN/A
8:00 am81 °FPassing clouds.No wind84%29.92 "HgN/A
7:00 am75 °FPassing clouds.No wind89%29.89 "HgN/A
6:00 am72 °FScattered clouds.No wind100%29.89 "HgN/A
5:00 am72 °FPassing clouds.No wind100%29.86 "Hg4 mi
4:00 am72 °FPassing clouds.No wind100%29.86 "HgN/A
3:00 am72 °FPassing clouds.5 mph100%29.83 "Hg5 mi
2:00 am72 °FFog.No wind100%29.83 "Hg1 mi
12:00 am73 °FClear.No wind100%29.86 "Hg10 mi
11:00 pm
Fri, Dec 2
75 °FClear.No wind100%29.89 "Hg10 mi
10:00 pm77 °FPassing clouds.No wind94%29.89 "HgN/A
9:00 pm77 °FPassing clouds.5 mph94%29.89 "HgN/A
8:00 pm77 °FPassing clouds.5 mph94%29.89 "HgN/A
Weather by CustomWeather, © 2016

See weather overviewHow to use our weather pages